EW8178 Weather Reports


Display with metric or nautical units.
time (UTC)temp
F
wind
direction
speed
MPH
gust
MPH
rain 1hr
in
rain 24hr
in
rain mn
in
humidity
%
barometer
mb
20260507203042 44 247 2.0 10.0 0.00 0.00 0.00 83 1006.8
20260507201535 43 245 1.0 5.0 0.00 0.00 0.00 84 1006.6
20260507200028 44 321 0.0 2.0 0.00 0.00 0.00 82 1006.5
20260507194531 44 321 0.0 2.0 0.00 0.00 0.00 81 1006.4
20260507193020 44 321 0.0 3.0 0.00 0.02 0.00 81 1006.0
20260507191518 44 309 2.0 6.0 0.00 0.02 0.00 83 1005.7
20260507190016 45 304 1.0 5.0 0.00 0.02 0.00 83 1005.5
20260507184516 45 277 1.0 3.0 0.00 0.02 0.00 84 1005.4
20260507183007 46 278 0.0 3.0 0.00 0.15 0.00 84 1005.1
20260507181503 47 275 1.0 4.0 0.00 0.15 0.00 84 1005.1
20260507180000 48 267 0.0 4.0 0.00 0.15 0.00 83 1005.1
20260507174557 49 281 1.0 5.0 0.00 0.15 0.00 82 1005.0
20260507173052 49 304 1.0 7.0 0.00 0.20 0.00 81 1005.1
20260507171551 50 283 1.0 9.0 0.00 0.20 0.00 80 1005.1
20260507170049 50 263 1.0 8.0 0.00 0.20 0.00 78 1005.1
20260507164544 51 300 1.0 4.0 0.00 0.20 0.00 75 1005.0
20260507163041 52 254 1.0 8.0 0.00 0.20 0.00 73 1005.0
20260507161542 52 254 3.0 8.0 0.00 0.20 0.00 74 1005.2
20260507160036 53 287 2.0 11.0 0.00 0.20 0.00 73 1005.0
20260507154536 55 250 1.0 9.0 0.00 0.20 0.00 69 1004.9
20260507153040 57 226 4.0 9.0 0.00 0.20 0.00 61 1004.7
20260507151532 58 247 3.0 12.0 0.00 0.20 0.00 63 1004.4
20260507150032 57 231 4.0 9.0 0.00 0.20 0.00 62 1004.1
20260507144527 60 175 5.0 9.0 0.00 0.20 0.00 59 1003.9
20260507143027 59 128 3.0 8.0 0.00 0.27 0.00 64 1003.9
20260507141524 58 271 3.0 10.0 0.00 0.27 0.00 69 1004.1
20260507140024 59 227 2.0 10.0 0.00 0.27 0.00 69 1004.2
20260507134520 61 250 4.0 10.0 0.00 0.27 0.00 66 1004.2
20260507133019 59 217 3.0 9.0 0.00 0.28 0.00 69 1004.3
20260507131520 59 223 3.0 9.0 0.00 0.28 0.00 65 1004.4
20260507130027 61 291 3.0 9.0 0.00 0.28 0.00 60 1004.5
20260507124520 59 202 2.0 8.0 0.00 0.28 0.00 62 1004.5
20260507123013 62 281 1.0 7.0 0.00 0.37 0.00 62 1004.5
20260507121512 61 232 2.0 12.0 0.00 0.37 0.00 65 1004.5
20260507120019 61 258 4.0 9.0 0.00 0.37 0.00 66 1004.6
20260507114507 61 249 5.0 9.0 0.00 0.37 0.00 66 1004.7
20260507113007 63 265 3.0 8.0 0.00 0.39 0.00 59 1004.8
20260507111507 63 289 3.0 7.0 0.00 0.39 0.00 66 1004.8
20260507110002 62 176 2.0 10.0 0.00 0.39 0.00 62 1004.9
20260507104557 60 248 1.0 8.0 0.00 0.39 0.00 64 1005.0
20260507103057 60 291 2.0 7.0 0.00 0.45 0.00 66 1005.0
20260507101557 60 238 2.0 7.0 0.00 0.45 0.00 66 1005.0
20260507100053 58 190 2.0 8.0 0.00 0.45 0.00 69 1005.1
20260507094548 57 13 3.0 6.0 0.00 0.45 0.00 72 1005.2
20260507093053 56 253 1.0 3.0 0.00 0.64 0.00 78 1005.2
20260507091547 56 311 1.0 4.0 0.00 0.64 0.00 77 1005.2
20260507090046 57 273 3.0 6.0 0.00 0.64 0.00 72 1005.2
20260507084546 58 263 1.0 5.0 0.00 0.64 0.00 69 1005.0
20260507083038 56 253 1.0 4.0 0.00 0.83 0.00 77 1004.9
20260507081537 56 263 2.0 7.0 0.00 0.83 0.00 76 1004.9
20260507080040 56 179 2.0 5.0 0.00 0.83 0.00 76 1004.8
20260507074503 55 279 2.0 8.0 0.00 0.83 0.00 79 1004.8
20260507073001 54 254 1.0 5.0 0.00 0.99 0.00 80 1004.8
20260507071611 54 275 2.0 7.0 0.00 0.99 0.00 78 1004.7
20260507070057 54 250 1.0 7.0 0.00 0.99 0.00 78 1004.5
20260507064554 54 233 5.0 9.0 0.00 0.99 0.00 81 1004.5
20260507063049 52 264 1.0 6.0 0.00 1.02 0.99 82 1004.6
20260507061545 51 265 2.0 4.0 0.00 1.02 0.99 84 1004.5
20260507060039 49 198 1.0 4.0 0.00 1.02 0.99 82 1004.6
20260507054533 48 251 0.0 3.0 0.00 1.02 0.99 79 1004.5
20260507053042 47 251 0.0 6.0 0.00 1.02 0.99 72 1004.3
20260507051531 46 250 1.0 7.0 0.00 1.02 0.99 62 1004.2
20260507050019 46 252 1.0 4.0 0.00 1.02 0.99 67 1004.1
20260507044513 46 259 0.0 4.0 0.00 1.02 0.99 59 1003.9
20260507043011 46 306 2.0 4.0 0.00 1.02 0.99 62 1003.8
20260507041503 46 271 1.0 3.0 0.00 1.02 0.99 67 1003.7
20260507034553 46 279 2.0 8.0 0.00 1.02 0.99 75 1003.6
20260507033051 46 302 4.0 9.0 0.00 1.02 0.99 75 1003.5
20260507031546 46 242 4.0 11.0 0.00 1.02 0.99 76 1003.5
20260507030038 47 235 3.0 9.0 0.00 1.02 0.99 74 1003.6
20260507024537 47 234 3.0 11.0 0.00 1.02 0.99 75 1003.4
20260507023034 47 290 3.0 13.0 0.00 1.02 0.99 79 1003.3
20260507021524 47 273 1.0 10.0 0.00 1.02 0.99 81 1003.3
20260507020021 48 223 1.0 11.0 0.00 1.02 0.99 80 1003.5
20260507014515 48 262 4.0 11.0 0.00 1.02 0.99 81 1003.3
20260507013008 48 234 6.0 18.0 0.00 1.02 0.99 80 1003.5
20260507011506 48 217 4.0 10.0 0.00 1.02 0.99 80 1003.4
20260507010107 48 317 2.0 18.0 0.00 1.02 0.99 81 1003.4
20260507004605 48 213 4.0 12.0 0.00 1.02 0.99 81 1003.7
20260507003049 48 194 5.0 14.0 0.00 1.02 0.99 79 1003.6
20260507001550 48 267 4.0 17.0 0.00 1.02 0.99 77 1003.6
20260507000037 48 276 5.0 16.0 0.00 1.02 0.99 79 1003.7
20260506234531 49 196 6.0 14.0 0.00 1.02 0.99 77 1003.8
20260506233027 49 166 6.0 15.0 0.00 1.02 0.99 69 1004.0
20260506231523 49 217 6.0 21.0 0.00 1.02 0.99 56 1004.2
20260506230015 49 234 5.0 15.0 0.00 1.02 0.99 45 1004.0
20260506224511 49 244 10.0 17.0 0.00 1.02 0.99 33 1004.3
20260506223008 49 246 8.0 17.0 0.00 1.02 0.99 32 1004.0
20260506221507 48 250 5.0 13.0 0.00 1.02 0.99 27 1004.1
20260506220057 48 290 4.0 13.0 0.00 1.02 0.99 27 1004.0
20260506214602 48 273 4.0 14.0 0.00 1.02 0.99 22 1004.0
20260506213049 48 277 2.0 12.0 0.00 1.02 0.99 18 1003.9
20260506211545 48 219 3.0 14.0 0.00 1.02 0.99 18 1003.8
20260506210037 48 252 7.0 15.0 0.00 1.02 0.99 20 1003.9
20260506204534 47 226 5.0 23.0 0.00 1.02 0.99 25 1004.0